Simultaneous Nadir Overpasses (SNOs) Predictions

Prediction of SNOs between AQUA and METOP-C Satellite Orbit:

Table of predicted SNOs for the next 14.0 days since TLE Epoch: 2/24/2024
Index Date (AQUA) Time (AQUA) Lat,Lon (AQUA) SZA (AQUA ) Date (METOP-C) Time (METOP-C) Lat,Lon (METOP-C) SZA (METOP-C ) Distance(km) Time Diff (sec)
1 02/26/2024 19:21:53 75.14,-112.98 83.82 02/26/2024 19:21:26 75.15,-112.96 83.83 1.05 27
2 02/26/2024 20:11:16 -75.19, 54.54 96.15 02/26/2024 20:12:07 -75.22, 54.58 96.12 3.39 51
3 02/29/2024 11:33:35 75.12, 4.18 82.79 02/29/2024 11:33:06 75.13, 4.08 82.80 3.10 29
4 02/29/2024 12:22:59 -75.22, 171.58 97.13 02/29/2024 12:23:47 -75.21, 171.63 97.14 1.94 48
5 03/03/2024 03:45:17 75.18, 121.16 81.82 03/03/2024 03:44:45 75.16, 121.23 81.80 3.20 32
6 03/03/2024 04:34:40 -75.22, -71.30 98.16 03/03/2024 04:35:26 -75.24, -71.20 98.14 3.34 46
7 03/05/2024 19:56:55 75.15,-121.64 80.75 03/05/2024 19:56:23 75.17,-121.64 80.78 2.07 32
8 03/05/2024 20:46:19 -75.24, 45.77 99.17 03/05/2024 20:47:05 -75.21, 45.79 99.21 3.59 46
9 03/08/2024 12:08:33 75.15, -4.50 79.70 03/08/2024 12:08:02 75.18, -4.53 79.74 3.45 31
10 03/08/2024 12:57:57 -75.23, 162.93 100.23 03/08/2024 12:58:44 -75.22, 162.90 100.25 1.84 47



Historial Predications of SNOs between AQUA and METOP-C
